Lafayette, LA

5:45 PM CDT on May 20, 2018 (GMT -0500)
Lafayette Regional

Weather History for KLFT - August, 2012

Change the Weather History Date:

Monday, August 6, 2012

  Actual Average Record
Temperature  
Mean Temperature 85 °F 84 °F  
Max Temperature 94 °F 93 °F 99 °F (1926)
Min Temperature 75 °F 75 °F 65 °F (1940)
Cooling Degree Days 20 19  
Month to date cooling degree days 122 114  
Year to date cooling degree days 2017 1798  
Since 1 June cooling degree days 1171 1184  
Growing Degree Days 34 (Base 50)    
Moisture  
Dew Point 74 °F    
Average Humidity 73    
Maximum Humidity 94    
Minimum Humidity 52    
Precipitation  
Precipitation 0.00 in 0.15 in 2.02 in (1940)
Month to date precipitation 0.21 0.92  
Year to date precipitation 43.72 36.92  
Sea Level Pressure  
Sea Level Pressure 30.03 in    
Wind  
Wind Speed 3 mph (NNE)    
Max Wind Speed 15 mph    
Max Gust Speed 22 mph    
Visibility 9 miles    
Events      
T = Trace of Precipitation, MM = Missing Value Source: NWS Daily Summary

Daily Weather History Graph

Daily Weather History Graph

Search for Another Location

Airport or City:

Astronomy

Aug. 06, 2012 Rise Set
Actual Time 6:29 AM CDT 7:57 PM CDT
Civil Twilight 6:04 AM CDT 8:22 PM CDT
Nautical Twilight 5:33 AM CDT 8:53 PM CDT
Astronomical Twilight 5:01 AM CDT 9:25 PM CDT
Moon 10:34 PM CDT (8/6) 10:52 AM CDT (8/6)
Length of Visible Light 14h 18m
Length of Day
13h 27m
Waning Gibbous, 78% of the Moon is Illuminated
Aug 6
Waning Gibbous
Aug 9
Last Quarter
Aug 17
New
Aug 24
First Quarter
Aug 31
Full

Hourly Weather History & Observations

Time (CDT) Temp. Heat Index Dew Point Humidity Pressure Visibility Wind Dir Wind Speed Gust Speed Precip Events Conditions
12:53 AM 77.0 °F - 73.9 °F 90% 30.06 in 9.0 mi Calm Calm - N/A   Clear
1:53 AM 75.9 °F - 73.9 °F 94% 30.05 in 7.0 mi Calm Calm - N/A   Clear
2:53 AM 75.9 °F - 73.0 °F 91% 30.04 in 7.0 mi Calm Calm - N/A   Clear
3:53 AM 75.9 °F - 73.0 °F 91% 30.04 in 9.0 mi Calm Calm - N/A   Clear
4:53 AM 77.0 °F - 73.9 °F 90% 30.04 in 9.0 mi Calm Calm - N/A   Clear
5:53 AM 75.9 °F - 73.0 °F 91% 30.05 in 7.0 mi Calm Calm - 0.01 in   Clear
6:53 AM 75.0 °F - 73.0 °F 94% 30.07 in 5.0 mi Calm Calm - N/A   Clear
7:53 AM 78.1 °F - 73.9 °F 87% 30.09 in 8.0 mi Calm Calm - N/A   Clear
8:53 AM 82.9 °F 90.2 °F 75.0 °F 77% 30.09 in 10.0 mi Variable 3.5 mph - N/A   Clear
9:53 AM 87.1 °F 96.3 °F 75.0 °F 67% 30.08 in 10.0 mi NNW 6.9 mph - N/A   Clear
10:20 AM 87.8 °F 97.6 °F 75.2 °F 66% 30.08 in 10.0 mi Variable 3.5 mph - N/A   Mostly Cloudy
10:53 AM 86.0 °F 95.1 °F 75.0 °F 70% 30.08 in 10.0 mi NW 5.8 mph - N/A   Mostly Cloudy
11:53 AM 90.0 °F 97.9 °F 73.0 °F 57% 30.08 in 10.0 mi East 5.8 mph - N/A   Mostly Cloudy
12:00 PM 89.6 °F 98.2 °F 73.4 °F 59% 30.07 in 10.0 mi Calm Calm - N/A   Partly Cloudy
12:53 PM 91.0 °F 101.6 °F 75.0 °F 59% 30.06 in 10.0 mi Variable 6.9 mph - N/A   Partly Cloudy
1:53 PM 93.0 °F 101.9 °F 73.0 °F 52% 30.03 in 10.0 mi East 4.6 mph - N/A   Clear
2:53 PM 93.0 °F 103.2 °F 73.9 °F 54% 29.99 in 10.0 mi ENE 5.8 mph - N/A   Clear
3:53 PM 93.9 °F 103.4 °F 73.0 °F 51% 29.97 in 10.0 mi ENE 4.6 mph - N/A   Clear
4:53 PM 93.9 °F 103.4 °F 73.0 °F 51% 29.96 in 10.0 mi East 3.5 mph - N/A   Clear
5:53 PM 90.0 °F 100.2 °F 75.0 °F 61% 29.96 in 10.0 mi SW 4.6 mph - N/A   Mostly Cloudy
6:53 PM 84.9 °F 91.4 °F 73.0 °F 67% 29.97 in 10.0 mi West 8.1 mph - N/A   Clear
7:53 PM 84.9 °F 90.7 °F 72.0 °F 65% 29.96 in 10.0 mi NW 3.5 mph - N/A   Scattered Clouds
8:53 PM 82.0 °F 87.9 °F 73.9 °F 76% 29.99 in 10.0 mi Calm Calm - N/A   Clear
9:53 PM 80.1 °F 83.8 °F 72.0 °F 76% 29.99 in 10.0 mi Calm Calm - 0.00 in   Scattered Clouds
10:53 PM 78.1 °F - 73.0 °F 84% 29.97 in 10.0 mi Calm Calm - N/A   Clear
11:53 PM 78.1 °F - 73.9 °F 87% 29.96 in 10.0 mi Calm Calm - N/A   Clear